Terug naar catalogus

THORAD AGENA D DEB

ActiefLEO
NORAD 4934·DEBRIS·🇺🇸 United States

Gelanceerd Apr 8, 1970 vanaf Vandenberg Space Force Base

Loading…

Volgende Passages

TLE

Source: Space-Track
1 04934U 70025GA  26228.31072277  .00000215  00000-0  27459-3 0  9991
2 04934 100.0271 357.2398 0006102  41.9358 347.7686 13.75494979804640

Volg THORAD AGENA D DEB in realtime met AllMySat

Download on the App Store